| time (UTC) | temp F | wind direction | speed MPH | gust MPH | rain 1hr in | rain 24hr in | rain mn in | humidity % | barometer mb |
| 20260831021057 | 71 | 26 | 1.0 | 9.0 | 0.00 | 0.00 | 0.00 | 55 | 1015.9 |
| 20260831020555 | 71 | 0 | 1.0 | 8.0 | 0.00 | 0.00 | 0.00 | 55 | 1015.9 |
| 20260831015554 | 71 | 33 | 0.0 | 4.0 | 0.00 | 0.00 | 0.00 | 54 | 1016.0 |
| 20260831015055 | 72 | 16 | 2.0 | 9.0 | 0.00 | 0.00 | 0.00 | 54 | 1015.9 |
| 20260831014604 | 72 | 74 | 2.0 | 9.0 | 0.00 | 0.00 | 0.00 | 52 | 1016.0 |
| 20260831014055 | 72 | 360 | 2.0 | 9.0 | 0.00 | 0.00 | 0.00 | 52 | 1016.0 |
| 20260831013555 | 73 | 0 | 1.0 | 6.0 | 0.00 | 0.00 | 0.00 | 52 | 1016.0 |
| 20260831013101 | 73 | 0 | 2.0 | 6.0 | 0.00 | 0.00 | 0.00 | 52 | 1016.0 |
| 20260831012555 | 73 | 341 | 1.0 | 8.0 | 0.00 | 0.00 | 0.00 | 52 | 1016.1 |
| 20260831012055 | 73 | 53 | 2.0 | 8.0 | 0.00 | 0.00 | 0.00 | 51 | 1016.2 |
| 20260831011605 | 73 | 360 | 2.0 | 6.0 | 0.00 | 0.00 | 0.00 | 51 | 1016.2 |
| 20260831011054 | 73 | 321 | 1.0 | 6.0 | 0.00 | 0.00 | 0.00 | 51 | 1016.2 |
| 20260831010555 | 73 | 63 | 1.0 | 6.0 | 0.00 | 0.00 | 0.00 | 49 | 1016.3 |
| 20260831010113 | 73 | 0 | 2.0 | 8.0 | 0.00 | 0.00 | 0.00 | 50 | 1016.2 |
| 20260831005558 | 73 | 323 | 2.0 | 11.0 | 0.00 | 0.00 | 0.00 | 49 | 1016.3 |
| 20260831005056 | 73 | 337 | 2.0 | 11.0 | 0.00 | 0.00 | 0.00 | 49 | 1016.5 |
| 20260831004608 | 74 | 27 | 3.0 | 11.0 | 0.00 | 0.00 | 0.00 | 48 | 1016.5 |
| 20260831004056 | 74 | 325 | 2.0 | 11.0 | 0.00 | 0.00 | 0.00 | 49 | 1016.5 |
| 20260831003555 | 74 | 26 | 1.0 | 9.0 | 0.00 | 0.00 | 0.00 | 47 | 1016.4 |
| 20260831003110 | 74 | 0 | 2.0 | 10.0 | 0.00 | 0.00 | 0.00 | 48 | 1016.5 |
| 20260831002555 | 74 | 32 | 3.0 | 10.0 | 0.00 | 0.00 | 0.00 | 48 | 1016.6 |
| 20260831002055 | 74 | 25 | 3.0 | 10.0 | 0.00 | 0.00 | 0.00 | 48 | 1016.5 |
| 20260831001559 | 74 | 23 | 3.0 | 9.0 | 0.00 | 0.00 | 0.00 | 47 | 1016.7 |
| 20260831001056 | 74 | 5 | 2.0 | 9.0 | 0.00 | 0.00 | 0.00 | 48 | 1016.5 |
| 20260831000556 | 74 | 65 | 1.0 | 9.0 | 0.00 | 0.00 | 0.00 | 48 | 1016.5 |
| 20260831000103 | 74 | 321 | 4.0 | 9.0 | 0.00 | 0.00 | 0.00 | 47 | 1016.5 |
| 20260830235556 | 75 | 59 | 2.0 | 8.0 | 0.00 | 0.00 | 0.00 | 47 | 1016.5 |
| 20260830235056 | 75 | 291 | 1.0 | 8.0 | 0.00 | 0.00 | 0.00 | 47 | 1016.6 |
| 20260830234607 | 75 | 24 | 2.0 | 16.0 | 0.00 | 0.00 | 0.00 | 46 | 1016.7 |
| 20260830234055 | 75 | 30 | 2.0 | 16.0 | 0.00 | 0.00 | 0.00 | 47 | 1016.7 |
| 20260830233557 | 75 | 69 | 1.0 | 8.0 | 0.00 | 0.00 | 0.00 | 47 | 1016.8 |
| 20260830233103 | 75 | 335 | 3.0 | 8.0 | 0.00 | 0.00 | 0.00 | 48 | 1016.9 |
| 20260830232557 | 74 | 330 | 2.0 | 8.0 | 0.00 | 0.00 | 0.00 | 48 | 1017.0 |
| 20260830232057 | 75 | 9 | 3.0 | 8.0 | 0.00 | 0.00 | 0.00 | 47 | 1017.1 |
| 20260830231622 | 75 | 285 | 2.0 | 10.0 | 0.00 | 0.00 | 0.00 | 46 | 1017.1 |
| 20260830231057 | 75 | 309 | 2.0 | 10.0 | 0.00 | 0.00 | 0.00 | 47 | 1017.1 |
| 20260830230555 | 74 | 19 | 3.0 | 10.0 | 0.00 | 0.00 | 0.00 | 47 | 1017.1 |
| 20260830225557 | 75 | 0 | 1.0 | 10.0 | 0.00 | 0.00 | 0.00 | 47 | 1017.2 |
| 20260830225100 | 75 | 336 | 2.0 | 10.0 | 0.00 | 0.00 | 0.00 | 46 | 1017.2 |
| 20260830224612 | 75 | 316 | 3.0 | 11.0 | 0.00 | 0.00 | 0.00 | 46 | 1017.4 |
| 20260830224057 | 75 | 325 | 3.0 | 11.0 | 0.00 | 0.00 | 0.00 | 46 | 1017.6 |
| 20260830223555 | 75 | 59 | 1.0 | 7.0 | 0.00 | 0.00 | 0.00 | 46 | 1017.6 |
| 20260830223103 | 75 | 28 | 2.0 | 8.0 | 0.00 | 0.00 | 0.00 | 46 | 1017.7 |
| 20260830222558 | 75 | 344 | 2.0 | 8.0 | 0.00 | 0.00 | 0.00 | 46 | 1017.8 |
| 20260830222054 | 75 | 352 | 2.0 | 8.0 | 0.00 | 0.00 | 0.00 | 47 | 1017.9 |
| 20260830221601 | 74 | 291 | 2.0 | 8.0 | 0.00 | 0.00 | 0.00 | 47 | 1017.9 |
| 20260830221055 | 74 | 70 | 1.0 | 10.0 | 0.00 | 0.00 | 0.00 | 47 | 1018.0 |
| 20260830220555 | 73 | 351 | 2.0 | 10.0 | 0.00 | 0.00 | 0.00 | 49 | 1018.1 |
| 20260830220104 | 72 | 32 | 1.0 | 9.0 | 0.00 | 0.00 | 0.00 | 49 | 1018.1 |
| 20260830215555 | 72 | 39 | 4.0 | 9.0 | 0.00 | 0.00 | 0.00 | 49 | 1018.2 |
| 20260830215056 | 73 | 71 | 3.0 | 9.0 | 0.00 | 0.00 | 0.00 | 48 | 1018.3 |
| 20260830214600 | 73 | 312 | 2.0 | 8.0 | 0.00 | 0.00 | 0.00 | 48 | 1018.4 |
| 20260830214056 | 73 | 5 | 2.0 | 12.0 | 0.00 | 0.00 | 0.00 | 48 | 1018.4 |
| 20260830213556 | 72 | 352 | 3.0 | 12.0 | 0.00 | 0.00 | 0.00 | 50 | 1018.5 |
| 20260830213059 | 72 | 5 | 4.0 | 10.0 | 0.00 | 0.00 | 0.00 | 49 | 1018.5 |
| 20260830212554 | 73 | 25 | 2.0 | 11.0 | 0.00 | 0.00 | 0.00 | 48 | 1018.5 |
| 20260830212056 | 72 | 352 | 2.0 | 11.0 | 0.00 | 0.00 | 0.00 | 49 | 1018.6 |
| 20260830211557 | 72 | 69 | 4.0 | 11.0 | 0.00 | 0.00 | 0.00 | 50 | 1018.7 |
| 20260830211056 | 72 | 62 | 4.0 | 9.0 | 0.00 | 0.00 | 0.00 | 49 | 1018.7 |
| 20260830210557 | 72 | 360 | 2.0 | 10.0 | 0.00 | 0.00 | 0.00 | 48 | 1018.6 |
| 20260830210133 | 72 | 340 | 3.0 | 10.0 | 0.00 | 0.00 | 0.00 | 48 | 1018.8 |
| 20260830205555 | 72 | 360 | 1.0 | 8.0 | 0.00 | 0.00 | 0.00 | 50 | 1018.7 |
| 20260830205055 | 72 | 13 | 1.0 | 8.0 | 0.00 | 0.00 | 0.00 | 51 | 1018.7 |
| 20260830204611 | 71 | 5 | 2.0 | 8.0 | 0.00 | 0.00 | 0.00 | 51 | 1018.8 |
| 20260830204055 | 70 | 309 | 2.0 | 9.0 | 0.00 | 0.00 | 0.00 | 53 | 1018.8 |
| 20260830203555 | 70 | 123 | 3.0 | 9.0 | 0.00 | 0.00 | 0.00 | 52 | 1018.9 |
| 20260830203100 | 70 | 57 | 2.0 | 6.0 | 0.00 | 0.00 | 0.00 | 52 | 1019.1 |
| 20260830202555 | 70 | 0 | 1.0 | 8.0 | 0.00 | 0.00 | 0.00 | 52 | 1019.2 |
| 20260830202055 | 70 | 148 | 2.0 | 8.0 | 0.00 | 0.00 | 0.00 | 51 | 1019.2 |
| 20260830201601 | 70 | 319 | 2.0 | 8.0 | 0.00 | 0.00 | 0.00 | 52 | 1019.4 |
| 20260830201056 | 70 | 300 | 4.0 | 8.0 | 0.00 | 0.00 | 0.00 | 51 | 1019.4 |
| 20260830200555 | 70 | 74 | 2.0 | 8.0 | 0.00 | 0.00 | 0.00 | 51 | 1019.5 |
| 20260830200115 | 71 | 342 | 2.0 | 8.0 | 0.00 | 0.00 | 0.00 | 51 | 1019.6 |
| 20260830195555 | 71 | 65 | 1.0 | 8.0 | 0.00 | 0.00 | 0.00 | 50 | 1019.6 |
| 20260830195056 | 70 | 5 | 2.0 | 7.0 | 0.00 | 0.00 | 0.00 | 52 | 1019.6 |
| 20260830194645 | 70 | 309 | 2.0 | 5.0 | 0.00 | 0.00 | 0.00 | 52 | 1019.6 |
| 20260830194055 | 69 | 250 | 1.0 | 6.0 | 0.00 | 0.00 | 0.00 | 53 | 1019.6 |
| 20260830193559 | 68 | 305 | 1.0 | 8.0 | 0.00 | 0.00 | 0.00 | 55 | 1019.6 |
| 20260830193105 | 68 | 0 | 3.0 | 8.0 | 0.00 | 0.00 | 0.00 | 54 | 1019.7 |
| 20260830192554 | 68 | 82 | 2.0 | 6.0 | 0.00 | 0.00 | 0.00 | 55 | 1019.7 |
| 20260830192056 | 68 | 325 | 3.0 | 7.0 | 0.00 | 0.00 | 0.00 | 54 | 1019.8 |
| 20260830191612 | 68 | 104 | 2.0 | 7.0 | 0.00 | 0.00 | 0.00 | 55 | 1020.0 |
| 20260830191057 | 69 | 5 | 2.0 | 7.0 | 0.00 | 0.00 | 0.00 | 55 | 1020.0 |
| 20260830190556 | 69 | 17 | 2.0 | 7.0 | 0.00 | 0.00 | 0.00 | 54 | 1019.9 |
| 20260830185555 | 68 | 86 | 2.0 | 7.0 | 0.00 | 0.00 | 0.00 | 55 | 1020.1 |
| 20260830185057 | 67 | 132 | 2.0 | 7.0 | 0.00 | 0.00 | 0.00 | 57 | 1020.2 |
| 20260830184601 | 67 | 9 | 2.0 | 6.0 | 0.00 | 0.00 | 0.00 | 60 | 1020.2 |
| 20260830184057 | 66 | 302 | 2.0 | 8.0 | 0.00 | 0.00 | 0.00 | 61 | 1020.2 |
| 20260830183600 | 66 | 5 | 2.0 | 8.0 | 0.00 | 0.00 | 0.00 | 60 | 1020.2 |
| 20260830183115 | 66 | 319 | 1.0 | 8.0 | 0.00 | 0.00 | 0.00 | 61 | 1020.2 |
| 20260830182558 | 65 | 67 | 2.0 | 8.0 | 0.00 | 0.00 | 0.00 | 62 | 1020.3 |
| 20260830182056 | 65 | 336 | 2.0 | 7.0 | 0.00 | 0.00 | 0.00 | 63 | 1020.3 |
| 20260830181603 | 64 | 276 | 2.0 | 8.0 | 0.00 | 0.00 | 0.00 | 63 | 1020.2 |
| 20260830181059 | 64 | 14 | 2.0 | 8.0 | 0.00 | 0.00 | 0.00 | 63 | 1020.2 |
| 20260830180556 | 64 | 17 | 2.0 | 10.0 | 0.00 | 0.00 | 0.00 | 63 | 1020.2 |
| 20260830180109 | 64 | 42 | 2.0 | 10.0 | 0.00 | 0.00 | 0.00 | 64 | 1020.2 |
| 20260830175556 | 64 | 62 | 4.0 | 9.0 | 0.00 | 0.00 | 0.00 | 64 | 1020.1 |
| 20260830175059 | 64 | 37 | 2.0 | 7.0 | 0.00 | 0.00 | 0.00 | 65 | 1020.1 |
| 20260830174608 | 63 | 110 | 2.0 | 5.0 | 0.00 | 0.00 | 0.00 | 67 | 1020.1 |
| 20260830174058 | 62 | 36 | 2.0 | 5.0 | 0.00 | 0.00 | 0.00 | 69 | 1020.1 |
| 20260830173559 | 63 | 36 | 1.0 | 5.0 | 0.00 | 0.00 | 0.00 | 68 | 1020.2 |
| 20260830173134 | 63 | 11 | 2.0 | 6.0 | 0.00 | 0.00 | 0.00 | 67 | 1020.2 |
| 20260830172554 | 63 | 13 | 2.0 | 6.0 | 0.00 | 0.00 | 0.00 | 67 | 1020.1 |
| 20260830172058 | 63 | 0 | 1.0 | 3.0 | 0.00 | 0.00 | 0.00 | 67 | 1020.1 |
| 20260830171609 | 63 | 42 | 1.0 | 4.0 | 0.00 | 0.00 | 0.00 | 68 | 1020.2 |
| 20260830171056 | 63 | 153 | 1.0 | 6.0 | 0.00 | 0.00 | 0.00 | 68 | 1020.2 |
| 20260830170559 | 63 | 112 | 3.0 | 6.0 | 0.00 | 0.00 | 0.00 | 67 | 1020.2 |
| 20260830170106 | 63 | 70 | 1.0 | 7.0 | 0.00 | 0.00 | 0.00 | 68 | 1020.2 |
| 20260830165556 | 63 | 82 | 3.0 | 7.0 | 0.00 | 0.00 | 0.00 | 67 | 1020.2 |
| 20260830165056 | 63 | 90 | 1.0 | 4.0 | 0.00 | 0.00 | 0.00 | 70 | 1020.2 |
| 20260830164603 | 63 | 302 | 2.0 | 5.0 | 0.00 | 0.00 | 0.00 | 70 | 1020.1 |
| 20260830164057 | 62 | 284 | 2.0 | 5.0 | 0.00 | 0.00 | 0.00 | 70 | 1020.1 |
| 20260830163556 | 62 | 0 | 1.0 | 5.0 | 0.00 | 0.00 | 0.00 | 73 | 1020.2 |
| 20260830163107 | 62 | 121 | 1.0 | 5.0 | 0.00 | 0.00 | 0.00 | 74 | 1020.2 |
| 20260830162556 | 61 | 94 | 1.0 | 5.0 | 0.00 | 0.00 | 0.00 | 74 | 1020.4 |
| 20260830162054 | 61 | 0 | 0.0 | 4.0 | 0.00 | 0.00 | 0.00 | 76 | 1020.4 |
| 20260830161627 | 61 | 63 | 1.0 | 4.0 | 0.00 | 0.00 | 0.00 | 76 | 1020.4 |
| 20260830161055 | 60 | 50 | 2.0 | 4.0 | 0.00 | 0.00 | 0.00 | 77 | 1020.4 |
| 20260830160555 | 60 | 0 | 1.0 | 4.0 | 0.00 | 0.00 | 0.00 | 78 | 1020.4 |
| 20260830160104 | 60 | 66 | 1.0 | 4.0 | 0.00 | 0.00 | 0.00 | 79 | 1020.4 |
| 20260830155557 | 59 | 66 | 0.0 | 4.0 | 0.00 | 0.00 | 0.00 | 80 | 1020.4 |
| 20260830155058 | 59 | 129 | 1.0 | 3.0 | 0.00 | 0.00 | 0.00 | 81 | 1020.4 |
| 20260830154558 | 58 | 84 | 1.0 | 3.0 | 0.00 | 0.00 | 0.00 | 83 | 1020.5 |
| 20260830154056 | 58 | 0 | 1.0 | 3.0 | 0.00 | 0.00 | 0.00 | 84 | 1020.4 |
| 20260830153555 | 57 | 83 | 0.0 | 3.0 | 0.00 | 0.00 | 0.00 | 86 | 1020.5 |
| 20260830153102 | 56 | 62 | 1.0 | 2.0 | 0.00 | 0.00 | 0.00 | 87 | 1020.5 |
| 20260830152555 | 56 | 0 | 0.0 | 2.0 | 0.00 | 0.00 | 0.00 | 89 | 1020.5 |
| 20260830152055 | 55 | 61 | 0.0 | 2.0 | 0.00 | 0.00 | 0.00 | 90 | 1020.7 |
| 20260830151601 | 55 | 300 | 0.0 | 2.0 | 0.00 | 0.00 | 0.00 | 91 | 1020.7 |
| 20260830151056 | 54 | 300 | 0.0 | 2.0 | 0.00 | 0.00 | 0.00 | 91 | 1020.6 |
| 20260830150555 | 54 | 0 | 0.0 | 0.0 | 0.00 | 0.00 | 0.00 | 92 | 1020.7 |
| 20260830150123 | 53 | 0 | 0.0 | 0.0 | 0.00 | 0.00 | 0.00 | 92 | 1020.7 |
| 20260830145559 | 53 | 0 | 0.0 | 0.0 | 0.00 | 0.00 | 0.00 | 92 | 1020.6 |
| 20260830145055 | 52 | 0 | 0.0 | 0.0 | 0.00 | 0.00 | 0.00 | 92 | 1020.6 |
| 20260830144606 | 52 | 0 | 0.0 | 0.0 | 0.00 | 0.00 | 0.00 | 91 | 1020.6 |
| 20260830144055 | 52 | 0 | 0.0 | 0.0 | 0.00 | 0.00 | 0.00 | 92 | 1020.7 |
| 20260830143555 | 52 | 0 | 0.0 | 0.0 | 0.00 | 0.00 | 0.00 | 92 | 1020.7 |
| 20260830143105 | 52 | 0 | 0.0 | 0.0 | 0.00 | 0.00 | 0.00 | 92 | 1020.6 |
| 20260830142558 | 52 | 0 | 0.0 | 0.0 | 0.00 | 0.00 | 0.00 | 92 | 1020.7 |
| 20260830142055 | 52 | 0 | 0.0 | 0.0 | 0.00 | 0.00 | 0.00 | 92 | 1020.6 |
| 20260830141600 | 52 | 0 | 0.0 | 0.0 | 0.00 | 0.00 | 0.00 | 92 | 1020.6 |
| 20260830141055 | 52 | 0 | 0.0 | 0.0 | 0.00 | 0.00 | 0.00 | 92 | 1020.5 |
| 20260830140555 | 52 | 0 | 0.0 | 0.0 | 0.00 | 0.00 | 0.00 | 92 | 1020.6 |
| 20260830140059 | 51 | 0 | 0.0 | 0.0 | 0.00 | 0.00 | 0.00 | 91 | 1020.5 |
| 20260830135555 | 51 | 0 | 0.0 | 0.0 | 0.00 | 0.00 | 0.00 | 92 | 1020.5 |
| 20260830135056 | 51 | 0 | 0.0 | 0.0 | 0.00 | 0.00 | 0.00 | 91 | 1020.4 |
| 20260830134604 | 51 | 0 | 0.0 | 0.0 | 0.00 | 0.00 | 0.00 | 91 | 1020.4 |
| 20260830134055 | 51 | 0 | 0.0 | 0.0 | 0.00 | 0.00 | 0.00 | 91 | 1020.5 |
| 20260830133558 | 51 | 0 | 0.0 | 0.0 | 0.00 | 0.00 | 0.00 | 91 | 1020.4 |
| 20260830133104 | 51 | 0 | 0.0 | 0.0 | 0.00 | 0.00 | 0.00 | 91 | 1020.5 |
| 20260830132555 | 51 | 0 | 0.0 | 0.0 | 0.00 | 0.00 | 0.00 | 91 | 1020.4 |
| 20260830132055 | 51 | 0 | 0.0 | 0.0 | 0.00 | 0.00 | 0.00 | 91 | 1020.4 |
| 20260830131625 | 51 | 0 | 0.0 | 0.0 | 0.00 | 0.00 | 0.00 | 91 | 1020.4 |
| 20260830131056 | 51 | 0 | 0.0 | 0.0 | 0.00 | 0.00 | 0.00 | 91 | 1020.3 |
| 20260830130556 | 51 | 0 | 0.0 | 0.0 | 0.00 | 0.00 | 0.00 | 90 | 1020.4 |
| 20260830125556 | 50 | 0 | 0.0 | 0.0 | 0.00 | 0.00 | 0.00 | 90 | 1020.4 |
| 20260830125053 | 50 | 0 | 0.0 | 0.0 | 0.00 | 0.00 | 0.00 | 90 | 1020.3 |
| 20260830124602 | 50 | 0 | 0.0 | 0.0 | 0.00 | 0.00 | 0.00 | 89 | 1020.2 |
| 20260830124053 | 50 | 0 | 0.0 | 0.0 | 0.00 | 0.00 | 0.00 | 89 | 1020.2 |
| 20260830123557 | 50 | 0 | 0.0 | 0.0 | 0.00 | 0.00 | 0.00 | 89 | 1020.2 |
| 20260830123108 | 50 | 0 | 0.0 | 0.0 | 0.00 | 0.00 | 0.00 | 89 | 1020.3 |
| 20260830122554 | 50 | 0 | 0.0 | 0.0 | 0.00 | 0.00 | 0.00 | 89 | 1020.2 |
| 20260830122053 | 50 | 0 | 0.0 | 0.0 | 0.00 | 0.00 | 0.00 | 89 | 1020.3 |
| 20260830121602 | 50 | 0 | 0.0 | 0.0 | 0.00 | 0.00 | 0.00 | 88 | 1020.2 |
| 20260830121054 | 50 | 0 | 0.0 | 0.0 | 0.00 | 0.00 | 0.00 | 88 | 1020.2 |
| 20260830120553 | 50 | 0 | 0.0 | 0.0 | 0.00 | 0.00 | 0.00 | 88 | 1020.2 |
| 20260830120104 | 50 | 0 | 0.0 | 0.0 | 0.00 | 0.00 | 0.00 | 87 | 1020.2 |
| 20260830115553 | 51 | 0 | 0.0 | 0.0 | 0.00 | 0.00 | 0.00 | 87 | 1020.1 |
| 20260830115058 | 51 | 0 | 0.0 | 0.0 | 0.00 | 0.00 | 0.00 | 87 | 1020.1 |
| 20260830114611 | 51 | 0 | 0.0 | 0.0 | 0.00 | 0.00 | 0.00 | 87 | 1020.1 |
| 20260830114058 | 51 | 0 | 0.0 | 0.0 | 0.00 | 0.00 | 0.00 | 87 | 1020.1 |
| 20260830113554 | 51 | 0 | 0.0 | 0.0 | 0.00 | 0.00 | 0.00 | 87 | 1020.1 |
| 20260830113058 | 51 | 0 | 0.0 | 0.0 | 0.00 | 0.00 | 0.00 | 87 | 1020.0 |
| 20260830112557 | 51 | 0 | 0.0 | 0.0 | 0.00 | 0.00 | 0.00 | 86 | 1020.0 |
| 20260830112054 | 51 | 0 | 0.0 | 1.0 | 0.00 | 0.00 | 0.00 | 86 | 1020.1 |
| 20260830111601 | 51 | 0 | 0.0 | 1.0 | 0.00 | 0.00 | 0.00 | 86 | 1020.0 |
| 20260830111057 | 51 | 0 | 0.0 | 1.0 | 0.00 | 0.00 | 0.00 | 86 | 1020.0 |
| 20260830110554 | 51 | 0 | 0.0 | 0.0 | 0.00 | 0.00 | 0.00 | 86 | 1020.1 |
| 20260830110100 | 51 | 0 | 0.0 | 0.0 | 0.00 | 0.00 | 0.00 | 85 | 1020.1 |
| 20260830105556 | 52 | 0 | 0.0 | 0.0 | 0.00 | 0.00 | 0.00 | 85 | 1020.1 |
| 20260830105053 | 52 | 0 | 0.0 | 0.0 | 0.00 | 0.00 | 0.00 | 85 | 1020.1 |
| 20260830104608 | 52 | 0 | 0.0 | 0.0 | 0.00 | 0.00 | 0.00 | 85 | 1020.1 |
| 20260830104057 | 52 | 0 | 0.0 | 1.0 | 0.00 | 0.00 | 0.00 | 85 | 1020.1 |
| 20260830103557 | 52 | 0 | 0.0 | 1.0 | 0.00 | 0.00 | 0.00 | 85 | 1020.2 |
| 20260830103103 | 52 | 0 | 0.0 | 1.0 | 0.00 | 0.00 | 0.00 | 85 | 1020.1 |
| 20260830102556 | 52 | 300 | 0.0 | 1.0 | 0.00 | 0.00 | 0.00 | 85 | 1020.1 |
| 20260830102054 | 52 | 300 | 0.0 | 2.0 | 0.00 | 0.00 | 0.00 | 85 | 1020.0 |
| 20260830101604 | 52 | 0 | 0.0 | 2.0 | 0.00 | 0.00 | 0.00 | 84 | 1020.0 |
| 20260830101053 | 52 | 300 | 0.0 | 1.0 | 0.00 | 0.00 | 0.00 | 84 | 1020.0 |
| 20260830100556 | 53 | 0 | 0.0 | 0.0 | 0.00 | 0.00 | 0.00 | 83 | 1020.0 |
| 20260830100106 | 53 | 0 | 0.0 | 0.0 | 0.00 | 0.00 | 0.00 | 83 | 1020.0 |
| 20260830095558 | 53 | 0 | 0.0 | 0.0 | 0.00 | 0.00 | 0.00 | 83 | 1020.0 |
| 20260830095057 | 53 | 0 | 0.0 | 0.0 | 0.00 | 0.00 | 0.00 | 82 | 1020.0 |
| 20260830094605 | 53 | 0 | 0.0 | 0.0 | 0.00 | 0.00 | 0.00 | 81 | 1020.1 |
| 20260830094054 | 54 | 0 | 0.0 | 0.0 | 0.00 | 0.00 | 0.00 | 81 | 1019.9 |
| 20260830093554 | 54 | 0 | 0.0 | 0.0 | 0.00 | 0.00 | 0.00 | 81 | 1020.0 |
| 20260830093100 | 54 | 0 | 0.0 | 0.0 | 0.00 | 0.00 | 0.00 | 81 | 1019.9 |
| 20260830092601 | 54 | 0 | 0.0 | 0.0 | 0.00 | 0.00 | 0.00 | 82 | 1019.9 |
| 20260830092058 | 54 | 0 | 0.0 | 0.0 | 0.00 | 0.00 | 0.00 | 81 | 1019.9 |
| 20260830091601 | 54 | 0 | 0.0 | 0.0 | 0.00 | 0.00 | 0.00 | 81 | 1019.9 |
| 20260830091054 | 54 | 0 | 0.0 | 0.0 | 0.00 | 0.00 | 0.00 | 82 | 1019.8 |
| 20260830090601 | 54 | 0 | 0.0 | 0.0 | 0.00 | 0.00 | 0.00 | 81 | 1019.9 |
| 20260830085601 | 55 | 0 | 0.0 | 0.0 | 0.00 | 0.00 | 0.00 | 81 | 1019.8 |
| 20260830085054 | 55 | 0 | 0.0 | 0.0 | 0.00 | 0.00 | 0.00 | 81 | 1019.8 |
| 20260830084602 | 55 | 0 | 0.0 | 0.0 | 0.00 | 0.00 | 0.00 | 81 | 1019.8 |
| 20260830084057 | 55 | 0 | 0.0 | 0.0 | 0.00 | 0.00 | 0.00 | 81 | 1019.8 |
| 20260830083556 | 55 | 0 | 0.0 | 0.0 | 0.00 | 0.00 | 0.00 | 80 | 1019.8 |
| 20260830083103 | 55 | 0 | 0.0 | 0.0 | 0.00 | 0.00 | 0.00 | 80 | 1019.9 |
| 20260830082553 | 55 | 0 | 0.0 | 0.0 | 0.00 | 0.00 | 0.00 | 80 | 1020.0 |
| 20260830082057 | 55 | 0 | 0.0 | 0.0 | 0.00 | 0.00 | 0.00 | 80 | 1019.9 |
| 20260830081609 | 56 | 0 | 0.0 | 0.0 | 0.00 | 0.00 | 0.00 | 79 | 1019.9 |
| 20260830081054 | 56 | 0 | 0.0 | 0.0 | 0.00 | 0.00 | 0.00 | 79 | 1019.9 |
| 20260830080558 | 56 | 0 | 0.0 | 0.0 | 0.00 | 0.00 | 0.00 | 79 | 1019.9 |
| 20260830080110 | 56 | 0 | 0.0 | 0.0 | 0.00 | 0.00 | 0.00 | 78 | 1019.9 |
| 20260830075557 | 56 | 0 | 0.0 | 0.0 | 0.00 | 0.00 | 0.00 | 78 | 1019.9 |
| 20260830075054 | 56 | 0 | 0.0 | 0.0 | 0.00 | 0.00 | 0.00 | 78 | 1019.9 |
| 20260830074610 | 56 | 0 | 0.0 | 0.0 | 0.00 | 0.00 | 0.00 | 77 | 1020.0 |
| 20260830074053 | 56 | 0 | 0.0 | 0.0 | 0.00 | 0.00 | 0.00 | 76 | 1019.9 |
| 20260830073553 | 56 | 0 | 0.0 | 0.0 | 0.00 | 0.00 | 0.00 | 76 | 1019.9 |
| 20260830073116 | 57 | 0 | 0.0 | 0.0 | 0.00 | 0.00 | 0.00 | 76 | 1019.9 |
| 20260830072557 | 57 | 0 | 0.0 | 0.0 | 0.00 | 0.00 | 0.00 | 76 | 1020.0 |
| 20260830072057 | 57 | 0 | 0.0 | 1.0 | 0.00 | 0.00 | 0.00 | 76 | 1019.9 |
| 20260830071605 | 57 | 0 | 0.0 | 1.0 | 0.00 | 0.00 | 0.00 | 76 | 1020.0 |
| 20260830071054 | 57 | 0 | 0.0 | 1.0 | 0.00 | 0.00 | 0.00 | 75 | 1019.9 |
| 20260830070553 | 57 | 0 | 0.0 | 1.0 | 0.00 | 0.00 | 0.00 | 75 | 1019.9 |
| 20260830070106 | 57 | 0 | 0.0 | 1.0 | 0.00 | 0.00 | 0.00 | 74 | 1020.0 |
| 20260830065555 | 57 | 300 | 0.0 | 0.0 | 0.00 | 0.00 | 0.00 | 74 | 1019.9 |
| 20260830065058 | 58 | 0 | 0.0 | 0.0 | 0.00 | 0.00 | 0.00 | 73 | 1020.0 |
| 20260830064635 | 58 | 0 | 0.0 | 0.0 | 0.00 | 0.00 | 0.00 | 73 | 1019.9 |
| 20260830064057 | 58 | 0 | 0.0 | 0.0 | 0.00 | 0.00 | 0.00 | 72 | 1019.9 |
| 20260830063558 | 58 | 0 | 0.0 | 0.0 | 0.00 | 0.00 | 0.00 | 72 | 1020.0 |
| 20260830063101 | 58 | 0 | 0.0 | 2.0 | 0.00 | 0.00 | 0.00 | 72 | 1019.9 |
| 20260830062554 | 58 | 0 | 0.0 | 2.0 | 0.00 | 0.00 | 0.00 | 72 | 1019.9 |
| 20260830062053 | 58 | 300 | 1.0 | 2.0 | 0.00 | 0.00 | 0.00 | 72 | 1019.9 |
| 20260830061625 | 59 | 300 | 1.0 | 2.0 | 0.00 | 0.00 | 0.00 | 72 | 1020.0 |
| 20260830061054 | 59 | 300 | 1.0 | 2.0 | 0.00 | 0.00 | 0.00 | 71 | 1019.9 |
| 20260830060558 | 59 | 0 | 0.0 | 2.0 | 0.00 | 0.00 | 0.00 | 71 | 1019.9 |
| 20260830060100 | 59 | 300 | 0.0 | 2.0 | 0.00 | 0.00 | 0.00 | 71 | 1019.9 |
| 20260830055553 | 59 | 0 | 0.0 | 2.0 | 0.00 | 0.00 | 0.00 | 70 | 1019.9 |
| 20260830055053 | 59 | 0 | 1.0 | 2.0 | 0.00 | 0.00 | 0.00 | 70 | 1019.9 |
| 20260830054600 | 59 | 296 | 0.0 | 2.0 | 0.00 | 0.00 | 0.00 | 70 | 1020.0 |
| 20260830054056 | 59 | 296 | 1.0 | 2.0 | 0.00 | 0.00 | 0.00 | 70 | 1019.9 |
| 20260830053555 | 59 | 298 | 1.0 | 2.0 | 0.00 | 0.00 | 0.00 | 69 | 1019.9 |
| 20260830053059 | 60 | 298 | 1.0 | 2.0 | 0.00 | 0.00 | 0.00 | 69 | 1019.9 |
| 20260830052554 | 60 | 292 | 1.0 | 3.0 | 0.00 | 0.00 | 0.00 | 68 | 1019.8 |
| 20260830052055 | 60 | 294 | 1.0 | 3.0 | 0.00 | 0.00 | 0.00 | 68 | 1019.8 |
| 20260830051559 | 60 | 297 | 1.0 | 2.0 | 0.00 | 0.00 | 0.00 | 67 | 1019.8 |
| 20260830051055 | 60 | 297 | 0.0 | 2.0 | 0.00 | 0.00 | 0.00 | 67 | 1019.8 |
| 20260830050557 | 61 | 297 | 1.0 | 2.0 | 0.00 | 0.00 | 0.00 | 66 | 1019.7 |
| 20260830045556 | 61 | 297 | 1.0 | 3.0 | 0.00 | 0.00 | 0.00 | 65 | 1019.7 |
| 20260830045053 | 61 | 0 | 0.0 | 3.0 | 0.00 | 0.00 | 0.00 | 65 | 1019.7 |
| 20260830044616 | 61 | 293 | 1.0 | 3.0 | 0.00 | 0.00 | 0.00 | 65 | 1019.6 |
| 20260830044057 | 62 | 300 | 1.0 | 3.0 | 0.00 | 0.00 | 0.00 | 64 | 1019.6 |
| 20260830043554 | 62 | 288 | 0.0 | 3.0 | 0.00 | 0.00 | 0.00 | 63 | 1019.7 |
| 20260830043059 | 62 | 289 | 1.0 | 2.0 | 0.00 | 0.00 | 0.00 | 63 | 1019.6 |
| 20260830042558 | 62 | 0 | 0.0 | 4.0 | 0.00 | 0.00 | 0.00 | 62 | 1019.5 |
| 20260830042057 | 62 | 289 | 1.0 | 4.0 | 0.00 | 0.00 | 0.00 | 62 | 1019.5 |
| 20260830041627 | 63 | 307 | 2.0 | 4.0 | 0.00 | 0.00 | 0.00 | 62 | 1019.5 |
| 20260830041054 | 63 | 290 | 1.0 | 3.0 | 0.00 | 0.00 | 0.00 | 61 | 1019.4 |
| 20260830040557 | 63 | 314 | 1.0 | 3.0 | 0.00 | 0.00 | 0.00 | 60 | 1019.3 |
| 20260830040111 | 63 | 314 | 0.0 | 3.0 | 0.00 | 0.00 | 0.00 | 59 | 1019.2 |
| 20260830035555 | 64 | 281 | 0.0 | 2.0 | 0.00 | 0.00 | 0.00 | 59 | 1019.1 |
| 20260830035057 | 64 | 280 | 0.0 | 2.0 | 0.00 | 0.00 | 0.00 | 58 | 1019.2 |
| 20260830034603 | 64 | 295 | 0.0 | 2.0 | 0.00 | 0.00 | 0.00 | 57 | 1019.1 |
| 20260830034058 | 65 | 295 | 0.0 | 2.0 | 0.00 | 0.00 | 0.00 | 56 | 1019.0 |
| 20260830033558 | 65 | 0 | 0.0 | 2.0 | 0.00 | 0.00 | 0.00 | 55 | 1019.1 |
| 20260830033113 | 65 | 0 | 0.0 | 3.0 | 0.00 | 0.00 | 0.00 | 55 | 1019.0 |
| 20260830032554 | 65 | 308 | 1.0 | 3.0 | 0.00 | 0.00 | 0.00 | 54 | 1018.9 |
| 20260830032054 | 66 | 281 | 1.0 | 4.0 | 0.00 | 0.00 | 0.00 | 54 | 1018.9 |
| 20260830031600 | 66 | 317 | 1.0 | 8.0 | 0.00 | 0.00 | 0.00 | 53 | 1018.8 |
| 20260830031054 | 66 | 310 | 1.0 | 8.0 | 0.00 | 0.00 | 0.00 | 52 | 1018.8 |
| 20260830030557 | 66 | 332 | 2.0 | 8.0 | 0.00 | 0.00 | 0.00 | 51 | 1018.7 |
| 20260830030103 | 67 | 290 | 1.0 | 6.0 | 0.00 | 0.00 | 0.00 | 50 | 1018.8 |
| 20260830025553 | 67 | 308 | 1.0 | 8.0 | 0.00 | 0.00 | 0.00 | 50 | 1018.7 |
| 20260830025053 | 67 | 273 | 2.0 | 10.0 | 0.00 | 0.00 | 0.00 | 49 | 1018.7 |
| 20260830024637 | 68 | 311 | 0.0 | 10.0 | 0.00 | 0.00 | 0.00 | 49 | 1018.6 |
| 20260830024056 | 68 | 324 | 3.0 | 10.0 | 0.00 | 0.00 | 0.00 | 48 | 1018.6 |
| 20260830023556 | 68 | 352 | 1.0 | 7.0 | 0.00 | 0.00 | 0.00 | 47 | 1018.5 |
| 20260830023101 | 69 | 0 | 1.0 | 8.0 | 0.00 | 0.00 | 0.00 | 46 | 1018.5 |
| 20260830022554 | 69 | 9 | 2.0 | 8.0 | 0.00 | 0.00 | 0.00 | 45 | 1018.4 |
| 20260830022055 | 70 | 286 | 2.0 | 9.0 | 0.00 | 0.00 | 0.00 | 44 | 1018.4 |
| 20260830021603 | 70 | 304 | 3.0 | 9.0 | 0.00 | 0.00 | 0.00 | 44 | 1018.4 |